Satellite-Ground Cal/Val Region Overpasses Predictions

Prediction of Satellite NPP Overpassing Cal/Val Region: PacNW

Region Location: (Latitude: 10.00, Longitude: 139.50) to (Latitude: 22.70, Longitude: 165.60).

Table of predicted overpasses for the next 14.0 days since TLE Epoch: 8/28/2016
Interval Starting Time Starting Location Ending Time Ending Location
1 08/28/2016 15:56:03 ( 22.67, 146.09) 08/28/2016 15:59:38 ( 10.05, 143.08)
2 08/29/2016 03:05:08 ( 10.04, 153.61) 08/29/2016 03:08:43 ( 22.67, 150.61)
3 08/29/2016 15:37:01 ( 22.67, 150.84) 08/29/2016 15:40:36 ( 10.05, 147.84)
4 08/30/2016 02:46:05 ( 10.05, 158.37) 08/30/2016 02:49:40 ( 22.67, 155.37)
5 08/30/2016 15:17:58 ( 22.67, 155.60) 08/30/2016 15:21:33 ( 10.05, 152.60)
6 08/31/2016 02:27:03 ( 10.05, 163.13) 08/31/2016 02:30:38 ( 22.67, 160.13)
7 08/31/2016 14:58:56 ( 22.66, 160.36) 08/31/2016 15:02:31 ( 10.04, 157.36)
8 09/01/2016 02:10:46 ( 19.80, 165.60) 09/01/2016 02:11:35 ( 22.67, 164.89)
9 09/01/2016 03:49:29 ( 10.00, 142.53) 09/01/2016 03:53:05 ( 22.68, 139.51)
10 09/01/2016 14:39:53 ( 22.66, 165.12) 09/01/2016 14:43:28 ( 10.04, 162.12)
11 09/01/2016 16:21:23 ( 22.65, 139.75) 09/01/2016 16:21:39 ( 21.71, 139.51)
12 09/02/2016 03:30:27 ( 10.01, 147.28) 09/02/2016 03:34:03 ( 22.69, 144.27)
13 09/02/2016 16:02:21 ( 22.65, 144.50) 09/02/2016 16:05:56 ( 10.03, 141.50)
14 09/03/2016 03:11:25 ( 10.01, 152.04) 09/03/2016 03:15:01 ( 22.69, 149.03)
15 09/03/2016 15:43:18 ( 22.64, 149.26) 09/03/2016 15:46:53 ( 10.02, 146.26)
16 09/04/2016 02:52:22 ( 10.02, 156.80) 09/04/2016 02:55:58 ( 22.70, 153.79)
17 09/04/2016 15:24:15 ( 22.70, 154.04) 09/04/2016 15:27:51 ( 10.02, 151.02)
18 09/05/2016 02:33:20 ( 10.02, 161.56) 09/05/2016 02:36:55 ( 22.64, 158.56)
19 09/05/2016 15:05:12 ( 22.69, 158.80) 09/05/2016 15:08:48 ( 10.01, 155.78)
20 09/06/2016 02:15:11 ( 13.20, 165.59) 09/06/2016 02:17:52 ( 22.65, 163.32)
21 09/06/2016 03:55:47 ( 10.04, 140.94) 09/06/2016 03:57:32 ( 16.20, 139.51)
22 09/06/2016 14:46:10 ( 22.69, 163.55) 09/06/2016 14:49:46 ( 10.01, 160.54)
23
